User: anonymous
Location: Hepcat Sky Observatory
(29.9800°N, 95.6500°W)
Time: 02:48:56
(UTC-05:00)
Language:

ALOS - Orbit

View from above orbital plane
View from above orbital plane
View from above satellite
View from above satellite

Ground track
Ground track

The orbit data is extracted from the following two-line orbital elements,

1 28931U 06002A   14262.11732502  .00001045  00000-0  22071-3 0   465
2 28931 097.9708 316.8600 0000861 125.6344 234.4910 14.61292241461049
Epoch (UTC): 19 September 2014 02:48:56
Eccentricity: 0.0000861
inclination: 97.9708°
perigee height: 688 km
apogee height: 689 km
right ascension of ascending node: 316.8600°
argument of perigee: 125.6344°
revolutions per day: 14.61292241
mean anomaly at epoch: 234.4910°
orbit number at epoch: 46104

The dashed part of the orbit path shows where the satellite is in the earth's shadow,  

DLR